Regional Weather Roundup
Issued by NWS

Home | Current Version | Previous Version | Graphics & Text | Print | Product List | Glossary On
Versions: 1 2 3 4 5 6 7 8 9 10 11 12 13 14 15 16 17 18 19 20 21 22 23 24 25 26 27 28 29 30 31 32 33 34 35 36 37 38 39 40 41 42 43 44 45 46 47 48 49 50
000
ASUS45 KTFX 302210
RWRMT
MONTANA REGIONAL WEATHER ROUNDUP
NATIONAL WEATHER SERVICE GREAT FALLS MT
400 PM MDT THU JUL 30 2015

NOTE: "FAIR" INDICATES FEW OR NO CLOUDS BELOW 12000 FEET WITH NO
SIGNIFICANT WEATHER AND/OR OBSTRUCTIONS TO VISIBILITY.

MTZ001>007-043-302300-
WEST OF THE DIVIDE

CITY           SKY/WX    TMP DP  RH WIND       PRES   REMARKS
KALISPELL      CLEAR     88  37  16 SE14      30.16F
MISSOULA       SUNNY     86  39  19 S8        30.19F
BUTTE          SUNNY     80  32  17 VRB5      30.34F
MULLAN PASS    SUNNY     77  30  17 NW3       30.39F
DEER LODGE       N/A     82  36  18 N6        30.32F
EUREKA           N/A     91  34  13 W10       30.14F
HAMILTON         N/A     88  34  14 E3        30.21F
LIBBY            N/A     91  32  12 CALM      30.14F
PLAINS           N/A     95  42  16 N5        30.13F HX  91
RONAN            N/A     87  38  17 SE3       30.23F
$$

MTZ008-052>055-302300-
SOUTHWEST MONTANA

CITY           SKY/WX    TMP DP  RH WIND       PRES   REMARKS
BOZEMAN        SUNNY     84  40  21 NW5       30.28F
DILLON         SUNNY     83  37  19 S8        30.30F
W YELLOWSTONE  SUNNY     77  32  19 N7        30.43F
THREE FORKS      N/A     86  37  17 E5        30.23F
TWIN BRIDGES     N/A     84  37  18 E3        30.26F
$$

MTZ009-010-012-014-046-048-049-054-302300-
EAST SLOPES AND CENTRAL MONTANA

CITY           SKY/WX    TMP DP  RH WIND       PRES   REMARKS
CUT BANK       SUNNY     88  31  13 NW12      30.19F
GREAT FALLS    SUNNY     86  35  16 W6        30.22F
MALMSTROM AFB  SUNNY     84  34  16 SW5G14    30.21F
HELENA         SUNNY     87  39  18 SE12      30.22F
$$

MTZ011-013-016-021-045-047-050-051-302300-
NORTH CENTRAL MONTANA

CITY           SKY/WX    TMP DP  RH WIND       PRES   REMARKS
HAVRE          SUNNY     85  41  21 SW7       30.16F
LEWISTOWN      SUNNY     84  40  21 N8        30.27F
CHINOOK          N/A     86  43  22 N8        30.16F
$$

MTZ017>020-022>027-061-062-302300-
NORTHEAST MONTANA

CITY           SKY/WX    TMP DP  RH WIND       PRES   REMARKS
GLASGOW        MOSUNNY   86  40  19 NW13      30.16F
JORDAN           N/A     87  39  18 NW15      30.18F
SIDNEY         MOSUNNY  N/A N/A N/A NW10G17   30.15S
WOLF POINT     PTSUNNY   85  43  22 W8        30.15F
MALTA            N/A     86  45  23 W8        30.12F
PLENTYWOOD       N/A     79  43  27 W9G23     30.17S
POPLAR           N/A     84  43  23 W7        30.15F
SCOBEY           N/A     80  47  31 NW3       30.16F
$$

MTZ028>42-056>058-302300-
SOUTHCENTRAL AND SOUTHEAST MONTANA

CITY           SKY/WX    TMP DP  RH WIND       PRES   REMARKS
BAKER          MOSUNNY   88  40  18 W12G21    30.20F
BILLINGS       MOSUNNY   88  37  16 S8        30.23F
LIVINGSTON     MOSUNNY   89  37  16 W10       30.27F
MILES CITY     MOSUNNY   89  42  19 VRB7      30.16F
FORSYTH          N/A     88  37  16 W8        30.18F
LAUREL           N/A     89  38  16 NE7       30.19F
ROUNDUP          N/A     88  39  17 CALM      30.12F
$$

REGIONAL REPORTS...DAKOTAS

CITY           SKY/WX    TMP DP  RH WIND       PRES   REMARKS
WILLISTON      MOSUNNY   84  43  23 NW14      30.15F
MINOT          SUNNY     81  47  30 NW18G28   30.11S
DICKINSON      MOSUNNY   84  44  24 NW12      30.16F
BEACH          FAIR      82  41  23 N10       30.20F
CROSBY         FAIR      79  48  34 NW15G21   30.16S
BISMARCK       SUNNY     84  44  24 NW18G25   30.13F
GRAND FORKS    MOSUNNY   82  54  37 NW15G23   29.97F
FARGO          SUNNY     83  53  35 NW21G28   30.02F
BUFFALO SD       N/A     88  38  17 NW12      30.13F
RAPID CITY     SUNNY     87  46  24 N6        30.22F
$$

REGIONAL REPORTS...WYOMING/IDAHO/WASHINGTON

CITY           SKY/WX    TMP DP  RH WIND       PRES   REMARKS
GILLETTE       SUNNY     87  35  15 W13       30.27F
SHERIDAN       SUNNY     88  36  15 E7        30.24F
BUFFALO WY     SUNNY     85  36  17 CALM      30.31F
CODY           SUNNY     84  32  15 S8        30.30F
YELLOWSTONE LA   N/A     70  41  34 E6        30.53F
IDAHO FALLS    SUNNY     86  27  11 MISG      30.30F
SALMON         SUNNY     84  43  23 N8        30.21F
BOISE          SUNNY     93  33  12 NW7       30.17F
SPOKANE        SUNNY     92  32  12 VRB5      30.14F
$$

REGIONAL REPORTS...ALBERTA

CITY           SKY/WX    TMP DP  RH WIND       PRES   REMARKS
EDMONTON       SUNNY     75  45  33 W12G18    30.14F
CALGARY        CLOUDY    79  43  27 S14       30.18F
LETHBRIDGE     MOSUNNY   86  39  19 VRB7      30.14F
MEDICINE HAT   MOSUNNY   86  37  17 SW10G17   30.14F
WATERTON GATE    N/A     84  37  18 SW12G18     N/A
CARDSTON         N/A     86  34  15 W7          N/A
MILK RIVER       N/A     86  37  17 N6          N/A
ONEFOUR          N/A     82  37  20 W6          N/A
$$

REGIONAL REPORTS...SASKATCHEWAN

CITY           SKY/WX    TMP DP  RH WIND       PRES   REMARKS
SWIFT CURRENT  SUNNY     77  43  29 W9        30.17F
REGINA         MOSUNNY   77  50  38 W17G26    30.13F
SASKATOON      MOSUNNY   77  43  29 W22G30    30.10F
CYPRESS HILLS    N/A     75  41  29 NW7         N/A
VAL MARIE        N/A     82  45  26 NW14G22     N/A
ROCKGLEN         N/A     79  45  29 W8          N/A
ASSINIBOIA       N/A     73  43  33 NW14G20     N/A
$$



USA.gov is the U.S. government's official web portal to all federal, state and local government web resources and services.